Regional Weather Roundup
Issued by NWS

Home | Current Version | Previous Version | Text Only | Print | Product List | Glossary On
Versions: 1 2 3 4 5 6 7 8 9 10 11 12 13 14 15 16 17 18 19 20 21 22 23 24 25 26 27 28 29 30 31 32 33 34 35 36 37 38 39 40 41 42 43 44 45 46 47 48 49 50
000
ASUS43 KMKX 301121
RWRWI

WISCONSIN REGIONAL WEATHER ROUNDUP
NATIONAL WEATHER SERVICE MILWAUKEE/SULLIVAN WI
600 AM CDT SUN APR 30 2017

NOTE: "FAIR" INDICATES FEW OR NO CLOUDS BELOW 12,000 FEET WITH NO
SIGNIFICANT WEATHER AND/OR OBSTRUCTIONS TO VISIBILITY.

WIZ001-002-006>008-014>016-023>028-301200-
NORTHWEST WISCONSIN

CITY           SKY/WX    TMP DP  RH WIND       PRES   REMARKS
SUPERIOR ARPT  CLOUDY    37  28  72 NE8G16    30.21F WCI  30
ASHLAND        CLOUDY    36  28  73 NE7       30.22R WCI  30
HAYWARD        CLOUDY    37  21  52 NE7       30.15F WCI  32
SIREN          CLOUDY    38  20  48 E6        30.13F WCI  34
CUMBERLAND     CLOUDY    37  21  52 NE10      30.10F WCI  30
RICE LAKE      CLOUDY    40  21  45 E13       30.13F WCI  33
CHETEK         CLOUDY    40  24  52 NE8       30.10F WCI  34
LADYSMITH      CLOUDY    39  23  51 NE9       30.14F WCI  33
EAU CLAIRE     CLOUDY    43  22  43 E16G24    30.07F
MENOMONIE      CLOUDY    43  24  47 NE12G17   30.07F
NEW RICHMOND   CLOUDY    40  21  46 NE13      30.07F WCI  33
OSCEOLA        CLOUDY    42  21  43 E13       30.11F
$$

WIZ003>005-009-010-017-018-301200-
NORTH CENTRAL WISCONSIN

CITY           SKY/WX    TMP DP  RH WIND       PRES   REMARKS
MANITOWISH WTR NOT AVBL
ARBOR VITAE    CLOUDY    39  23  52 E3        30.15S
WOODRUFF       CLOUDY    39  23  52 E3        30.15S
RHINELANDER    CLOUDY    37  23  56 E10       30.15R WCI  30
EAGLE RIVER    CLOUDY    36  20  52 NE9       30.15F WCI  29
LAND O LAKES   MOCLDY    36  21  55 E6        30.19S WCI  31
PHILLIPS       MOCLDY    35  22  58 E6        30.14S WCI  30
TOMAHAWK       CLOUDY    36  22  57 NE5       30.14F WCI  32
MEDFORD        CLOUDY    37  24  58 E14       30.09F WCI  29
MERRILL        CLOUDY    38  25  59 NE6       30.15R WCI  33
$$

WIZ029-030-035-036-043>047-301200-
CENTRAL WISCONSIN

CITY           SKY/WX    TMP DP  RH WIND       PRES   REMARKS
WAUSAU         CLOUDY    39  24  55 NE9       30.11S WCI  33
MOSINEE        CLOUDY    37  25  60 NE12      30.12F WCI  30
MARSHFIELD     CLOUDY    39  26  59 E16G23    30.06F WCI  30
STEVENS POINT  CLOUDY    37  26  63 NE10G16   30.10F WCI  30
WAUPACA        CLOUDY    41  30  63 NE10      30.10S
WAUTOMA        CLOUDY    40  34  79 NE14      30.07F WCI  32
WISC RAPIDS    CLOUDY    40  29  64 E10G21    30.08F WCI  33
CAMP DOUGLAS   CLOUDY    40  31  69 NE12G18   30.04F WCI  33
$$

WIZ011>013-019>022-031-037>040-048>050-301200-
NORTHEAST WISCONSIN

CITY           SKY/WX    TMP DP  RH WIND       PRES   REMARKS
ANTIGO         CLOUDY    37  25  62 E9        30.13F WCI  30
SHAWANO        CLOUDY    41  31  66 NE10G17   30.14S
OCONTO         CLOUDY    40  32  73 E7        30.16R
STURGEON BAY   LGT RAIN  39  36  89 NE10G18   30.17R WCI  32
GREEN BAY      CLOUDY    40  37  89 NE18G29   30.10F WCI  31
MANITOWOC      CLOUDY    39  36  89 NE14G21   30.09F WCI  31
APPLETON       CLOUDY    39  34  81 NE13G20   30.07F WCI  32
CLINTONVILLE   CLOUDY    37  28  70 NE10      30.12F WCI  30
OSHKOSH        CLOUDY    40  36  86 NE17G25   30.07S WCI  31
$$

WIZ032>034-041-042-053>061-301200-
SOUTHWEST WISCONSIN

CITY           SKY/WX    TMP DP  RH WIND       PRES   REMARKS
LA CROSSE      CLOUDY    45  29  53 NE12      30.00F
SPARTA         CLOUDY    41  31  68 NE14G23   30.04F
VIROQUA        CLOUDY    40  32  75 NE22G28   29.98F WCI  29
BOSCOBEL       CLOUDY    42  36  79 E8G18     29.97F
PRAIRIE DU CHI CLOUDY    41  34  75 NE10G21   29.96F
PLATTEVILLE    CLOUDY    39  39 100 NE20G26   29.91F WCI  30
$$

WIZ056-057-062-063-064-067-068-301200-
SOUTH CENTRAL WISCONSIN

CITY           SKY/WX    TMP DP  RH WIND       PRES   REMARKS
REEDSBURG      CLOUDY    38  37  95 NE13      30.02F WCI  30
BARABOO/DELLS  CLOUDY    37  36  94 NE12G23   30.02F FOG     WCI  30
LONE ROCK      CLOUDY    40  36  86 NE15      29.99F WCI  32
MINERAL POINT  CLOUDY    39  39 100 NE20G29   29.93F WCI  30
MADISON        DRIZZLE   40  38  93 NE13      29.99F FOG     WCI  32
MIDDLETON      CLOUDY    40  40  99 NE14      29.99F WCI  33
WATERTOWN      CLOUDY    40  40 100 NE12      30.00F WCI  33
MONROE         CLOUDY    39  37  93 NE17G23   29.92F WCI  30
JANESVILLE     CLOUDY    41  41 100 E20G26    29.94F
$$

WIZ051-052-058>065-066-070>072-301200-
SOUTHEAST WISCONSIN

CITY           SKY/WX    TMP DP  RH WIND       PRES   REMARKS
MILWAUKEE      LGT RAIN  41  40  96 NE16G24   30.00F FOG
WAUKESHA       CLOUDY    37  37 100 NE21      30.01R FOG     WCI  27
MILWAUKEE/TIMM RAIN      37  36  93 NE15G21   30.02F WCI  28
RACINE         CLOUDY    41  39  93 NE17G26   29.99F FOG
KENOSHA        CLOUDY    41  39  93 NE18G26   29.96F FOG
FOND DU LAC    CLOUDY    40  36  86 NE10G21   30.07R FOG     WCI  33
SHEBOYGAN      LGT RAIN  39  37  92 NE21      30.06S FOG     WCI  29
WEST BEND      LGT RAIN  37  37 100 E16G24    30.02F WCI  28
JUNEAU         CLOUDY    39  37  95 NE13      30.03R WCI  31
$$

LSZ147-162-301200-
LAKE SUPERIOR

STATION/POSITION TIME  TEMP    WIND        PRES    WAVE
                       AIR SEA DIR/SP/G            HT/PER
                 (UTC) (F)     (DEG/KT/KT) (MB)    (FT/S)
DEVILS ISLAND    1100   38      70/ 10/ 12 1024.6R
PORT WING        0940   37      60/  9/ 12 1023.0F
SAXON HARBOR     1040   35     240/  2/  2 1022.7F
$$

LMZ867-665-643>646-301200-
LAKE MICHIGAN

STATION/POSITION TIME  TEMP    WIND        PRES    WAVE
                       AIR SEA DIR/SP/G            HT/PER
                 (UTC) (F)     (DEG/KT/KT) (MB)    (FT/S)
CHAMBERS ISLAND  1040   41      60/ 11/ 15 1021.7R
N MID LAKE BUOY  1050   39 37  100/ 16/ 19 1023.4S   2/ 4
NORTHPORT PIER   1040   40      80/ 16/ 19 1022.4R
KEWAUNEE LAKESHO 1054   39      50/ 13/ 21 1019.7R
SHEBOYGAN LAKESH 1100   39      30/ 22/ 24 1018.6R
PORT WASHINGTON  1100   41      40/ 20     1017.9
MILWAUKEE LAKESH 1050   40      40/ 19/ 22   N/A
S MID LAKE BUOY  1050   41 40   40/ 17/ 19 1015.1F   4/ 5
KENOSHA   LAKESH 1100   41      40/ 22/ 25 1014.6
$$

TC  - TEMPERATURE IN CELSIUS
VSB - VISIBILITY IN STATUTE MILES
WCI - WIND CHILL INDEX
HX  - HEAT INDEX




USA.gov is the U.S. government's official web portal to all federal, state and local government web resources and services.